Flag for Germany Weather past 2 weeks in Höxter, North Rhine-Westphalia, Germany

Now
76 °F

Sunny.


Feels Like: 78 °F
Forecast: 49 / 79 °F
Wind: 2 mph from Northeast

Location: Bad Lippspringe

Current Time: Aug 1, 2015 at 6:17:09 PM

Latest Report: Aug 1, 2015 at 6:00 PM


Visibility: 25 mi

Pressure: 29.94 "Hg

Humidity: 40%

Dew point: 50 °F

Location of HöxterLocation

Historic Weather in Höxter — Graph

°F

Höxter temperature yesterday

Maximum temperature yesterday: 65 °F (at 4:00 PM)
Minimum temperature yesterday: 43 °F (at 5:00 AM)
Average temperature yesterday: 55 °F

Past Weeks' High & Low Weather Summary

 TemperatureHumidityPressure
High88 °F (Jul 17, 5:00 PM)100% (Jul 20, 5:00 AM)30.15 "Hg (Jul 20, 5:00 AM)
Low43 °F (Jul 31, 5:00 AM)27% (Jul 17, 5:00 PM)29.50 "Hg (Jul 25, 11:00 AM)
Average63 °F74%29.87 "Hg
* Reported Jul 17 5:00 PM — Aug 1 5:00 PM, Höxter, Weather by CustomWeather, © 2015

Note: Actual official high and low records may vary slightly from our data, if they occured in-between our weather recording intervals... More about our weather records

Advertising

Höxter weather history for previous 24 hours

 ConditionsComfort  
Time TempWeatherWind HumidityBarometerVisibility
5:00 PM
Sat, Aug 1
76 °FPassing clouds.2 mph38%29.95 "Hg22 mi
4:00 PM76 °FSunny.1 mph36%29.95 "Hg25 mi
3:00 PM74 °FSunny.2 mph40%29.96 "Hg25 mi
2:00 PM73 °FPassing clouds.3 mph46%29.98 "Hg19 mi
1:00 PM70 °FSunny.3 mph47%29.99 "Hg25 mi
12:00 PM69 °FSunny.3 mph50%29.99 "Hg28 mi
11:00 AM65 °FSunny.5 mph52%30.00 "Hg16 mi
10:00 AM63 °FPassing clouds.8 mph53%30.00 "Hg9 mi
9:00 AM60 °FSunny.8 mph55%30.00 "Hg7 mi
8:00 AM57 °FPassing clouds.7 mph58%30.00 "Hg17 mi
7:00 AM55 °FOvercast.7 mph59%30.00 "Hg28 mi
6:00 AM54 °FPartly sunny.7 mph61%30.01 "Hg28 mi
5:00 AM55 °FOvercast.6 mph61%30.03 "Hg28 mi
4:00 AM52 °FOvercast.1 mph72%30.04 "Hg25 mi
3:00 AM54 °FPassing clouds.3 mph66%30.05 "Hg28 mi
2:00 AM51 °FPassing clouds.1 mph78%30.06 "Hg28 mi
1:00 AM50 °FClear.1 mph79%30.07 "Hg18 mi
12:00 AM49 °FClear.1 mph86%30.08 "Hg16 mi
11:00 PM
Fri, Jul 31
51 °FClear.1 mph82%30.07 "Hg19 mi
10:00 PM53 °FPassing clouds.1 mph77%30.07 "Hg25 mi
9:00 PM57 °FSunny.2 mph72%30.07 "Hg28 mi
8:00 PM62 °FPassing clouds.2 mph48%30.07 "Hg40 mi
7:00 PM64 °FSunny.1 mph43%30.07 "Hg28 mi
6:00 PM64 °FPassing clouds.2 mph46%30.09 "Hg34 mi
Weather by CustomWeather, © 2015

See weather overviewHow to use our weather pages